sat.trackr.live / text

‹ back to catalog

STARLINK-32098

NORAD 59704 · 2024-086Y

PAYLOAD ACTIVE UNKNOWN

§ Identity

Operator
Country
US
Launch date
2024-05-08
Launch site
AFETR
Launch vehicle
Mass (kg)
RCS (m²)

Purposes: comms

External: N2YO · Heavens-Above · Gunter

§ Orbital elements

Epoch: 2026-09-21T16:16:34.005504Z

Period
94.27 min
Inclination
43.0054°
Eccentricity
0.0001383
Mean motion
15.27577286 rev/d
Perigee alt
482.1 km
Apogee alt
484.0 km
Semi-major
6,861.2 km
B*
8.1723e-6
RAAN
33.2621°
Arg perigee
269.4560°
Mean anomaly
90.6133°
Rev number
13,408

§ Raw data

STARLINK-320981 59704U 24086Y   26264.67817136 -.00000037  00000+0  81723-5 0  99902 59704  43.0054  33.2621 0001383 269.4560  90.6133 15.27577286134085

JSON: /api/v1/satellites/59704 · /tle

For live sub-satellite position, see the globe view (requires WebGL).

§ Visibility from observer

Set your observer location to see the next 7 days of passes ≥ 10°. The values pass through the URL so the page stays shareable.

No JS? Fill the form by hand. The geolocation button needs JavaScript.